When you browse on this site, cookies collect data to enhance your experience and personalize the content and advertising you see.
Visit our Privacy Policy to learn more. By continuing to use the site, you agree to this use of cookies and data.
  • In Latvia
  • List of Countries
  • For 7 days
  • Water Temperature
  • Weather Map
  • Weather Widgets
  • user-avatar
    Login

    Hourly Weather Akniste

    Today, 8 April, Wednesday

    Time Temperature Precipitation Wind Pressure Humidity
    00:00 +7°C° 0 mm 5 mps 759 mmHg 74%
    01:00 +6°C° 0 mm 5 mps 760 mmHg 76%
    02:00 +4°C° 0 mm 6 mps 760 mmHg 78%
    03:00 +5°C° 0 mm 5 mps 760 mmHg 78%
    04:00 +3°C° 0 mm 5 mps 760 mmHg 79%
    05:00 +4°C° 0 mm 4 mps 761 mmHg 79%
    06:00 +4°C° 0 mm 4 mps 761 mmHg 74%
    07:00 +5°C° 0 mm 4 mps 761 mmHg 70%
    08:00 +6°C° 0 mm 4 mps 762 mmHg 65%
    09:00 +7°C° 0 mm 4 mps 762 mmHg 59%
    10:00 +8°C° 0 mm 4 mps 762 mmHg 53%
    11:00 +10°C° 0 mm 4 mps 762 mmHg 47%
    12:00 +11°C° 0 mm 4 mps 762 mmHg 44%
    13:00 +12°C° 0 mm 3 mps 761 mmHg 41%
    14:00 +13°C° 0 mm 3 mps 761 mmHg 39%
    15:00 +13°C° 0 mm 3 mps 761 mmHg 41%
    16:00 +13°C° 0 mm 2 mps 760 mmHg 42%
    17:00 +13°C° 0 mm 2 mps 760 mmHg 44%
    18:00 +12°C° 0 mm 2 mps 760 mmHg 53%
    19:00 +9°C° 0 mm 2 mps 759 mmHg 61%
    20:00 +8°C° 0 mm 2 mps 759 mmHg 69%
    21:00 +7°C° 0 mm 2 mps 758 mmHg 72%
    22:00 +7°C° 0 mm 2 mps 758 mmHg 74%
    23:00 +6°C° 0 mm 2 mps 757 mmHg 77%

    Tomorrow, 9 April, Thursday

    Time Temperature Precipitation Wind Pressure Humidity
    00:00 +5°C° 0 mm 3 mps 757 mmHg 76%
    01:00 +5°C° 0 mm 3 mps 756 mmHg 75%
    02:00 +5°C° 0 mm 3 mps 755 mmHg 75%
    03:00 +6°C° 0 mm 4 mps 755 mmHg 73%
    04:00 +6°C° 0 mm 4 mps 754 mmHg 71%
    05:00 +6°C° 0 mm 4 mps 753 mmHg 70%
    06:00 +6°C° 0 mm 4 mps 752 mmHg 70%
    07:00 +6°C° 0 mm 4 mps 752 mmHg 71%
    08:00 +7°C° 0 mm 4 mps 751 mmHg 71%
    09:00 +6°C° 0.9 mm 4 mps 751 mmHg 78%
    10:00 +7°C° 0.9 mm 3 mps 750 mmHg 85%
    11:00 +7°C° 0.9 mm 3 mps 750 mmHg 91%
    12:00 +7°C° 0.3 mm 3 mps 750 mmHg 89%
    13:00 +8°C° 0.3 mm 3 mps 749 mmHg 86%
    14:00 +8°C° 0.3 mm 4 mps 749 mmHg 84%
    15:00 +8°C° 0.3 mm 4 mps 749 mmHg 82%
    16:00 +7°C° 0.3 mm 4 mps 750 mmHg 80%
    17:00 +7°C° 0.3 mm 5 mps 750 mmHg 78%
    18:00 +6°C° 0 mm 4 mps 750 mmHg 75%
    19:00 +4°C° 0 mm 4 mps 751 mmHg 73%
    20:00 +3°C° 0 mm 4 mps 751 mmHg 70%
    21:00 +1°C° 0 mm 4 mps 752 mmHg 72%
    22:00 +1°C° 0 mm 3 mps 752 mmHg 74%
    23:00 0°C° 0 mm 3 mps 753 mmHg 75%

    Day after tomorrow, 10 April, Friday

    Time Temperature Precipitation Wind Pressure Humidity
    00:00 0°C° 0 mm 3 mps 753 mmHg 77%
    01:00 0°C° 0 mm 3 mps 753 mmHg 79%
    02:00 -1°C° 0 mm 3 mps 753 mmHg 81%
    03:00 -1°C° 0 mm 3 mps 754 mmHg 82%
    04:00 -1°C° 0 mm 3 mps 754 mmHg 83%
    05:00 -1°C° 0 mm 3 mps 754 mmHg 85%
    06:00 0°C° 0 mm 3 mps 755 mmHg 80%
    07:00 0°C° 0 mm 4 mps 755 mmHg 75%
    08:00 +3°C° 0 mm 4 mps 756 mmHg 70%
    09:00 +4°C° 0 mm 4 mps 756 mmHg 62%
    10:00 +5°C° 0 mm 5 mps 756 mmHg 54%
    11:00 +6°C° 0 mm 5 mps 756 mmHg 46%
    12:00 +5°C° 0 mm 6 mps 756 mmHg 43%
    13:00 +5°C° 0 mm 6 mps 756 mmHg 39%
    14:00 +5°C° 0 mm 7 mps 756 mmHg 36%
    15:00 +5°C° 0 mm 6 mps 756 mmHg 38%
    16:00 +4°C° 0 mm 6 mps 756 mmHg 39%
    17:00 +4°C° 0 mm 6 mps 756 mmHg 40%
    18:00 +2°C° 0 mm 5 mps 756 mmHg 46%
    19:00 +1°C° 0 mm 4 mps 757 mmHg 52%
    20:00 +1°C° 0 mm 3 mps 757 mmHg 57%
    21:00 0°C° 0 mm 3 mps 757 mmHg 63%
    22:00 +1°C° 0 mm 2 mps 757 mmHg 70%
    23:00 -1°C° 0 mm 2 mps 758 mmHg 76%

    11 April, Saturday

    Time Temperature Precipitation Wind Pressure Humidity
    00:00 -1°C° 0 mm 2 mps 758 mmHg 78%
    01:00 -2°C° 0 mm 2 mps 758 mmHg 81%
    02:00 -2°C° 0 mm 2 mps 758 mmHg 83%
    03:00 -2°C° 0 mm 2 mps 759 mmHg 83%
    04:00 -2°C° 0 mm 2 mps 759 mmHg 83%
    05:00 -2°C° 0 mm 2 mps 759 mmHg 83%
    06:00 -1°C° 0 mm 2 mps 759 mmHg 75%
    07:00 +1°C° 0 mm 2 mps 760 mmHg 67%
    08:00 +2°C° 0 mm 2 mps 760 mmHg 60%
    09:00 +4°C° 0 mm 2 mps 760 mmHg 55%
    10:00 +5°C° 0 mm 2 mps 760 mmHg 50%
    11:00 +5°C° 0 mm 3 mps 760 mmHg 46%
    12:00 +7°C° 0 mm 3 mps 760 mmHg 44%
    13:00 +8°C° 0 mm 3 mps 760 mmHg 43%
    14:00 +8°C° 0 mm 3 mps 759 mmHg 42%
    15:00 +8°C° 0 mm 3 mps 759 mmHg 43%
    16:00 +8°C° 0 mm 3 mps 759 mmHg 44%
    17:00 +7°C° 0 mm 4 mps 758 mmHg 45%
    18:00 +7°C° 0 mm 3 mps 758 mmHg 52%
    19:00 +5°C° 0 mm 2 mps 758 mmHg 59%
    20:00 +4°C° 0 mm 2 mps 758 mmHg 66%
    21:00 +3°C° 0 mm 2 mps 758 mmHg 67%
    22:00 +3°C° 0 mm 2 mps 758 mmHg 68%
    23:00 +2°C° 0 mm 2 mps 758 mmHg 70%

    12 April, Sunday

    Time Temperature Precipitation Wind Pressure Humidity
    00:00 +2°C° 0 mm 2 mps 758 mmHg 70%
    01:00 +2°C° 0 mm 2 mps 757 mmHg 70%
    02:00 +2°C° 0 mm 2 mps 757 mmHg 71%
    03:00 +2°C° 0 mm 2 mps 757 mmHg 69%
    04:00 +2°C° 0 mm 2 mps 756 mmHg 68%
    05:00 +2°C° 0 mm 2 mps 756 mmHg 67%
    06:00 +2°C° 0 mm 3 mps 755 mmHg 66%
    07:00 +3°C° 0 mm 3 mps 755 mmHg 66%
    08:00 +4°C° 0 mm 4 mps 754 mmHg 66%
    09:00 +4°C° 0.1 mm 4 mps 754 mmHg 73%
    10:00 +4°C° 0.1 mm 4 mps 753 mmHg 79%
    11:00 +4°C° 0.1 mm 3 mps 753 mmHg 85%
    12:00 +4°C° 0.3 mm 3 mps 752 mmHg 87%
    13:00 +4°C° 0.3 mm 3 mps 752 mmHg 89%
    14:00 +4°C° 0.3 mm 4 mps 751 mmHg 91%
    15:00 +4°C° 0.9 mm 4 mps 750 mmHg 91%
    16:00 +4°C° 0.9 mm 4 mps 749 mmHg 92%
    17:00 +4°C° 0.9 mm 4 mps 748 mmHg 92%
    18:00 +5°C° 0.9 mm 4 mps 748 mmHg 91%
    19:00 +5°C° 0.9 mm 4 mps 747 mmHg 91%
    20:00 +5°C° 0.9 mm 3 mps 746 mmHg 90%
    21:00 +5°C° 0.1 mm 3 mps 745 mmHg 89%
    22:00 +7°C° 0.1 mm 3 mps 744 mmHg 88%
    23:00 +6°C° 0.1 mm 4 mps 743 mmHg 88%

    13 April, Monday

    Time Temperature Precipitation Wind Pressure Humidity
    00:00 +6°C° 0 mm 4 mps 742 mmHg 87%
    01:00 +6°C° 0 mm 4 mps 741 mmHg 85%
    02:00 +6°C° 0 mm 4 mps 740 mmHg 84%
    03:00 +6°C° 0.2 mm 4 mps 739 mmHg 87%
    04:00 +5°C° 0.2 mm 4 mps 738 mmHg 89%
    05:00 +5°C° 0.2 mm 4 mps 738 mmHg 92%
    06:00 +5°C° 0.6 mm 4 mps 737 mmHg 92%
    07:00 +5°C° 0.6 mm 4 mps 737 mmHg 93%
    08:00 +6°C° 0.6 mm 4 mps 736 mmHg 93%
    09:00 +5°C° 0.8 mm 4 mps 736 mmHg 93%
    10:00 +5°C° 0.8 mm 4 mps 736 mmHg 92%
    11:00 +4°C° 0.8 mm 4 mps 736 mmHg 92%
    12:00 +2°C° 0.5 mm 5 mps 736 mmHg 92%
    13:00 +1°C° 0.5 mm 5 mps 736 mmHg 92%
    14:00 0°C° 0.5 mm 5 mps 737 mmHg 92%
    15:00 0°C° 0.1 mm 5 mps 737 mmHg 84%
    16:00 0°C° 0.1 mm 5 mps 737 mmHg 76%
    17:00 0°C° 0.1 mm 5 mps 738 mmHg 67%
    18:00 -1°C° 0 mm 5 mps 738 mmHg 69%
    19:00 -1°C° 0 mm 4 mps 738 mmHg 71%
    20:00 -1°C° 0 mm 3 mps 739 mmHg 73%
    21:00 -2°C° 0 mm 3 mps 739 mmHg 76%
    22:00 -2°C° 0 mm 2 mps 739 mmHg 79%
    23:00 -3°C° 0 mm 2 mps 739 mmHg 82%
    Show more